Zurück zum Katalog

YUNYAO-1 46

AktivWissenschaftSSO
NORAD 63347·PAYLOAD·🇨🇳 China

Gestartet Mar 21, 2025 von Jiuquan Satellite Launch Center

Loading…

Nächste Überflüge (nächste 24 Stunden)

TLE

AktuellSource: Space-Track

Epoche: Sep 14, 2026, 22:51 UTC

1 63347U 25059D   26257.95275348  .00002470  00000-0  15016-3 0  9998
2 63347  97.6151  78.9319 0011259 189.4915 170.6104 15.11365477 81857

Verfolge YUNYAO-1 46 in Echtzeit mit AllMySat

Download on the App Store